Laramie, WY

8:01 AM MDT on June 23, 2017 (GMT -0600)
Laramie Regional

Weather History for KLAR - June, 2012

Change the Weather History Date:

Wednesday, June 6, 2012

  Actual Average Record
Temperature  
Mean Temperature 57 °F 54 °F  
Max Temperature 77 °F 69 °F 87 °F (2004)
Min Temperature 37 °F 40 °F 29 °F (1998)
Degree Days  
Heating Degree Days 8 11  
Month to date heating degree days 20 70  
Since 1 June heating degree days 20 70  
Since 1 July heating degree days 8090 8659  
Cooling Degree Days 0 0  
Month to date cooling degree days 2 0  
Year to date cooling degree days 2 0  
Since 1 June cooling degree days 2 0  
Growing Degree Days 7 (Base 50)    
Moisture  
Dew Point 35 °F    
Average Humidity 47    
Maximum Humidity 77    
Minimum Humidity 17    
Precipitation  
Precipitation T in 0.06 in 1.87 in (1991)
Month to date precipitation 0.01 0.39  
Year to date precipitation 2.37 4.34  
Sea Level Pressure  
Sea Level Pressure 29.83 in    
Wind  
Wind Speed 12 mph (ENE)    
Max Wind Speed 28 mph    
Max Gust Speed 35 mph    
Visibility 10 miles    
Events Rain , Thunderstorm    
T = Trace of Precipitation, MM = Missing Value Source: NWS Daily Summary

Daily Weather History Graph

Daily Weather History Graph

Search for Another Location

Airport or City:

Trip Planner

Search our weather history database for the weather conditions in past years. The results will help you decide how hot, cold, wet, or windy it might be!

Date:

Astronomy

Jun. 06, 2012 Rise Set
Actual Time 5:29 AM MDT 8:33 PM MDT
Civil Twilight 4:56 AM MDT 9:06 PM MDT
Nautical Twilight 4:13 AM MDT 9:49 PM MDT
Astronomical Twilight 3:23 AM MDT 10:40 PM MDT
Moon 10:45 PM MDT (6/6) 7:54 AM MDT (6/6)
Length of Visible Light 16h 10m
Length of Day
15h 03m
Waning Gibbous, 93% of the Moon is Illuminated
Jun 6
Waning Gibbous
Jun 11
Last Quarter
Jun 19
New
Jun 26
First Quarter
Jul 3
Full

Hourly Weather History & Observations

Time (MDT) Temp. Windchill Dew Point Humidity Pressure Visibility Wind Dir Wind Speed Gust Speed Precip Events Conditions
12:53 AM 59.0 °F - 44.6 °F 59% 29.92 in 10.0 mi SE 20.7 mph - N/A   Clear
1:53 AM 57.0 °F - 45.0 °F 64% 29.60 in 10.0 mi ESE 8.1 mph - N/A   Clear
2:53 AM 43.0 °F 35.1 °F 28.9 °F 58% 29.70 in 10.0 mi NE 17.3 mph - N/A   Clear
3:53 AM 41.0 °F 34.7 °F 25.0 °F 53% 29.75 in 10.0 mi ENE 10.4 mph - N/A   Clear
4:53 AM 39.0 °F 32.3 °F 19.9 °F 46% 29.76 in 10.0 mi NE 10.4 mph - N/A   Clear
5:53 AM 39.9 °F 35.1 °F 18.0 °F 41% 29.80 in 10.0 mi North 6.9 mph - N/A   Clear
6:53 AM 42.1 °F - 26.1 °F 53% 29.81 in 10.0 mi Calm Calm - N/A   Clear
7:53 AM 48.0 °F - 23.0 °F 37% 29.79 in 10.0 mi ENE 5.8 mph - N/A   Clear
8:53 AM 54.0 °F - 21.0 °F 28% 29.78 in 10.0 mi ENE 4.6 mph - N/A   Clear
9:53 AM 60.8 °F - 21.2 °F 22% 30.07 in 10.0 mi North 9.2 mph - N/A   Clear
10:53 AM 63.0 °F - 21.0 °F 20% 29.75 in 10.0 mi North 9.2 mph - N/A   Clear
11:53 AM 64.9 °F - 21.0 °F 19% 29.75 in 10.0 mi North 11.5 mph 18.4 mph N/A   Clear
12:53 PM 68.0 °F - 21.9 °F 17% 29.74 in 10.0 mi NNE 12.7 mph 19.6 mph N/A   Clear
1:53 PM 73.0 °F - 32.0 °F 22% 29.71 in 10.0 mi East 9.2 mph - N/A   Clear
2:14 PM 73.4 °F - 33.8 °F 23% 30.04 in 10.0 mi East 16.1 mph 25.3 mph N/A   Clear
2:53 PM 75.2 °F - 32.0 °F 21% 30.04 in 10.0 mi East 18.4 mph 28.8 mph N/A   Clear
3:53 PM 75.2 °F - 39.2 °F 27% 30.01 in 10.0 mi SE 17.3 mph - N/A   Clear
4:53 PM 72.0 °F - 43.0 °F 35% 29.73 in 10.0 mi East 6.9 mph - 0.00 in Rain , Thunderstorm Light Rain
5:18 PM 73.4 °F - 42.8 °F 33% 29.98 in 10.0 mi NE 10.4 mph - 0.00 in   Mostly Cloudy
5:53 PM 73.0 °F - 46.0 °F 38% 29.71 in 10.0 mi NE 20.7 mph - 0.00 in   Scattered Clouds
6:53 PM 64.9 °F - 44.1 °F 47% 29.75 in 10.0 mi East 21.9 mph 32.2 mph N/A   Scattered Clouds
7:11 PM 64.4 °F - 44.6 °F 49% 30.01 in 10.0 mi ENE 17.3 mph 27.6 mph N/A Thunderstorm Scattered Clouds
7:26 PM 64.4 °F - 44.6 °F 49% 30.02 in 10.0 mi NE 13.8 mph - N/A   Mostly Cloudy
7:53 PM 61.0 °F - 45.0 °F 56% 29.79 in 10.0 mi NNE 17.3 mph 27.6 mph N/A   Mostly Cloudy
8:53 PM 57.9 °F - 46.9 °F 67% 29.82 in 10.0 mi ENE 10.4 mph - N/A   Overcast
9:53 PM 57.0 °F - 46.9 °F 69% 29.81 in 10.0 mi NE 15.0 mph - N/A   Overcast
10:53 PM 54.0 °F - 46.0 °F 75% 29.82 in 10.0 mi East 13.8 mph - N/A   Mostly Cloudy
11:53 PM 53.1 °F - 45.0 °F 74% 29.81 in 10.0 mi East 15.0 mph - N/A   Mostly Cloudy